{"data":{"norad_id":57507,"intl_designator":"2023-113N","name":"STARLINK-30219","alt_names":[],"object_type":"PAYLOAD","status":"ACTIVE","operator":null,"country":"US","launch_date":"2023-08-07","launch_site_code":"AFETR","launch_vehicle":null,"mission":null,"orbit_class":"UNKNOWN","rcs_meters":null,"size_class":null,"mass_kg":null,"dimensions":null,"purposes":["comms"],"wikipedia_slug":null,"has_3d_model":false,"image_url":null,"decayed_at":null,"tle_current":{"epoch":"2026-05-25T03:54:31.458240Z","epoch_age_seconds":61304,"freshness":"FRESH","line1":"1 57507U 23113N   26145.16286410  .00011987  00000+0  41148-3 0  9996","line2":"2 57507  43.0017 303.9338 0002872 280.0823  79.9705 15.30103700155370","mean_motion":15.301037,"eccentricity":0.0002872,"inclination_deg":43.0017,"raan_deg":303.9338,"arg_perigee_deg":280.0823,"mean_anomaly_deg":79.9705,"bstar":0.00041148,"rev_number":15537,"period_min":94.111268406187,"perigee_km":473.53425364291,"apogee_km":477.47098424003,"semimajor_km":6853.6396189415,"source":"CELESTRAK","updated_at":"2026-05-25T13:38:18.329186Z"}}}